Radiation Dose measured at exhaust stack monitor of Miscellaneous Solid Waste Incinerator Building/Incinerator raregas monitor
Date,Time,Incinerator Gas Monitor(cps),Wind Direction,Wind Velocity(m/s)
2022/08/11,00:00,1.5,south,6.0
2022/08/11,00:10,1.5,south,6.4
2022/08/11,00:20,1.5,south,5.9
2022/08/11,00:30,1.5,south,6.2
2022/08/11,00:40,1.4,south,6.0
2022/08/11,00:50,1.4,south,6.2
2022/08/11,01:00,1.5,south,7.3
2022/08/11,01:10,1.5,south,6.5
2022/08/11,01:20,1.4,south,5.4
2022/08/11,01:30,1.4,south,4.2
2022/08/11,01:40,1.5,south,3.9
2022/08/11,01:50,1.5,south,4.6
2022/08/11,02:00,1.5,south,5.8
2022/08/11,02:10,1.5,south,6.2
2022/08/11,02:20,1.5,south,6.1
2022/08/11,02:30,1.4,south,4.2
2022/08/11,02:40,1.5,south,5.7
2022/08/11,02:50,1.4,south,6.2
2022/08/11,03:00,1.5,south,5.7
2022/08/11,03:10,1.4,south,5.1
2022/08/11,03:20,1.4,south,3.1
2022/08/11,03:30,1.5,south,3.9
2022/08/11,03:40,1.4,south,5.1
2022/08/11,03:50,1.6,south,5.4
2022/08/11,04:00,1.5,south,4.9
2022/08/11,04:10,1.4,south,4.2
2022/08/11,04:20,1.5,south,3.6
2022/08/11,04:30,1.4,south-southwest,3.2
2022/08/11,04:40,1.5,south,2.9
2022/08/11,04:50,1.5,south,4.6
2022/08/11,05:00,1.5,south,5.5
2022/08/11,05:10,1.5,south,4.7
2022/08/11,05:20,1.4,south,4.6
2022/08/11,05:30,1.5,south,4.9
2022/08/11,05:40,1.4,south,5.2
2022/08/11,05:50,1.5,south,5.2
2022/08/11,06:00,1.5,south,5.2
2022/08/11,06:10,1.5,south,4.8
2022/08/11,06:20,1.4,south,4.4
2022/08/11,06:30,1.4,south,4.8
2022/08/11,06:40,1.5,south,4.6
2022/08/11,06:50,1.4,south,5.3
2022/08/11,07:00,1.4,south,6.2
2022/08/11,07:10,1.5,south,6.0
2022/08/11,07:20,1.6,south,6.2
2022/08/11,07:30,1.5,south,6.4
2022/08/11,07:40,1.4,south,5.9
2022/08/11,07:50,1.5,south,6.7
2022/08/11,08:00,1.5,south,7.6
2022/08/11,08:10,1.4,south,7.1
2022/08/11,08:20,1.4,south,6.6
2022/08/11,08:30,1.5,south,6.2
2022/08/11,08:40,1.4,south-southeast,5.4
2022/08/11,08:50,1.5,south,5.0
2022/08/11,09:00,1.4,south-southwest,4.3
2022/08/11,09:10,1.5,south-southwest,2.5
2022/08/11,09:20,1.4,south,3.2
2022/08/11,09:30,1.5,south,3.5
2022/08/11,09:40,1.5,south,3.3
2022/08/11,09:50,1.4,south,5.6
2022/08/11,10:00,1.5,south,5.8
2022/08/11,10:10,1.4,south-southeast,5.5
2022/08/11,10:20,1.5,south-southeast,6.1
2022/08/11,10:30,1.5,south-southeast,6.4
2022/08/11,10:40,1.4,south-southeast,9.0
2022/08/11,10:50,1.5,south,8.8
2022/08/11,11:00,1.4,south,10.7
2022/08/11,11:10,1.5,south-southeast,10.6
2022/08/11,11:20,1.4,south,10.8
2022/08/11,11:30,1.5,south,9.3
2022/08/11,11:40,1.5,south-southeast,12.5
2022/08/11,11:50,1.4,south,12.0
2022/08/11,12:00,1.4,south,10.8
2022/08/11,12:10,1.5,south,11.8
2022/08/11,12:20,1.4,south,11.3
2022/08/11,12:30,1.5,south,11.3
2022/08/11,12:40,1.5,south,8.5
2022/08/11,12:50,1.5,south,8.0
2022/08/11,13:00,1.4,south,10.0
2022/08/11,13:10,1.4,south,10.5
2022/08/11,13:20,1.4,south,11.3
2022/08/11,13:30,1.4,south,12.0
2022/08/11,13:40,1.5,south-southeast,12.5
2022/08/11,13:50,1.5,south-southeast,12.2
2022/08/11,14:00,1.4,south-southeast,13.6
2022/08/11,14:10,1.5,south,11.7
2022/08/11,14:20,1.5,south,9.6
2022/08/11,14:30,1.5,south,10.7
2022/08/11,14:40,1.4,south,8.7
2022/08/11,14:50,1.4,south-southeast,9.4
2022/08/11,15:00,1.5,south,9.3
2022/08/11,15:10,1.4,south,8.3
2022/08/11,15:20,1.4,south,9.2
2022/08/11,15:30,1.4,south,10.2
2022/08/11,15:40,1.4,south,9.7
2022/08/11,15:50,1.4,south,10.5
2022/08/11,16:00,1.4,south,10.4
2022/08/11,16:10,1.4,south,8.8
2022/08/11,16:20,1.3,south,9.0
2022/08/11,16:30,1.4,south,9.1
2022/08/11,16:40,1.5,south,8.3
2022/08/11,16:50,1.5,south,7.9
2022/08/11,17:00,1.4,south,8.8
2022/08/11,17:10,1.5,south,8.5
2022/08/11,17:20,1.4,south,8.7
2022/08/11,17:30,1.4,south,8.2
2022/08/11,17:40,1.6,south,7.0
2022/08/11,17:50,1.5,south,8.4
2022/08/11,18:00,1.4,south,10.2
2022/08/11,18:10,1.6,south,10.0
2022/08/11,18:20,1.5,south,9.8
2022/08/11,18:30,1.5,south,8.1
2022/08/11,18:40,1.5,south,7.8
2022/08/11,18:50,1.5,south,7.2
2022/08/11,19:00,1.5,south,6.9
2022/08/11,19:10,1.6,south,6.5
2022/08/11,19:20,1.5,south,6.7
2022/08/11,19:30,1.5,south,7.0
2022/08/11,19:40,1.5,south,7.3
2022/08/11,19:50,1.4,south,7.5
2022/08/11,20:00,1.4,south,7.1
2022/08/11,20:10,1.4,south,7.5
2022/08/11,20:20,1.4,south,7.5
2022/08/11,20:30,1.5,south,8.1
2022/08/11,20:40,1.4,south,8.4
2022/08/11,20:50,1.4,south,8.8
2022/08/11,21:00,1.4,south,9.4
2022/08/11,21:10,1.5,south,9.3
2022/08/11,21:20,1.4,south,9.6
2022/08/11,21:30,1.4,south,10.0
2022/08/11,21:40,1.5,south,9.0
2022/08/11,21:50,1.6,south,8.9
2022/08/11,22:00,1.4,south,8.2
2022/08/11,22:10,1.5,south,8.9
2022/08/11,22:20,1.5,south,8.4
2022/08/11,22:30,1.4,south,8.7
2022/08/11,22:40,1.5,south,8.9
2022/08/11,22:50,1.4,south,7.0
2022/08/11,23:00,1.4,south,6.1
2022/08/11,23:10,1.4,south,6.0
2022/08/11,23:20,1.5,south,6.7
2022/08/11,23:30,1.5,south,7.7
2022/08/11,23:40,1.6,south,7.8
2022/08/11,23:50,1.5,south,9.2
